Wind_Speed
13 13 15 15 15 15 15 15 15 15 14 15 16 17 18 18 19 19 20 20 20 20 21 21 22 22 22 22 22 22 22 22 21 19 18 17 16 14 12 10 9 8 8 9
12 12 13 14 15 15 15 15 15 15 15 15 16 16 17 18 18 19 19 20 20 21 21 22 22 22 22 22 22 22 22 22 21 21 20 19 17 16 15 13 11 10 10 10
11 11 12 13 14 15 15 15 15 15 15 15 15 16 17 18 18 19 19 20 20 21 21 22 22 22 23 23 22 22 22 22 22 21 21 20 19 18 17 15 13 12 10 9
10 11 11 13 13 14 14 14 14 14 14 14 15 15 17 18 18 19 19 19 20 20 20 21 22 23 23 23 23 22 22 22 22 22 23 22 21 20 19 18 15 13 11 9
8 9 10 11 11 12 13 13 14 14 14 14 14 15 16 17 18 18 19 19 19 19 19 20 21 22 22 23 23 23 23 23 24 24 24 24 23 22 21 19 17 15 12 10
7 8 8 9 10 11 12 12 13 13 13 14 14 15 16 16 17 18 18 19 18 18 18 19 20 20 21 22 22 23 23 24 24 25 25 25 24 23 22 21 19 16 13 11
8 8 8 8 8 9 10 12 12 12 13 13 14 15 16 16 17 17 18 18 18 18 18 18 19 20 21 22 22 23 23 24 24 25 26 26 25 24 23 22 21 18 16 13
10 10 9 9 9 9 10 10 11 12 12 13 13 14 15 16 16 17 17 17 17 17 17 18 18 19 20 21 22 22 23 24 24 25 26 26 26 25 24 24 22 20 18 15
13 12 12 11 11 11 10 10 10 11 12 12 13 13 14 15 16 16 16 16 17 17 17 17 18 19 19 20 21 21 22 23 24 25 25 26 26 25 24 24 23 21 20 18
15 15 15 14 14 14 13 13 12 12 12 12 13 13 13 14 15 15 15 16 16 16 16 16 17 18 19 20 20 21 22 22 23 24 25 26 26 25 24 24 24 23 21 20
18 18 17 17 17 16 16 16 15 15 14 14 13 13 13 14 14 14 15 15 15 15 15 15 16 17 18 18 19 20 20 21 22 23 24 24 25 25 24 24 24 23 22 21
20 21 20 19 19 19 19 19 18 18 17 16 15 15 14 14 14 14 14 14 14 14 14 14 15 15 16 17 17 18 19 20 21 22 22 23 24 24 24 24 23 23 22 22
24 24 23 23 22 21 21 21 21 20 19 18 17 17 16 16 15 15 14 14 14 14 14 14 14 14 15 15 16 16 17 18 19 20 21 21 22 23 23 23 23 23 22 21
29 28 26 26 25 25 24 24 23 23 22 21 20 19 18 18 17 16 16 15 14 14 13 13 13 13 13 14 14 15 15 15 16 17 18 19 19 20 21 21 22 22 22 22
34 33 31 29 29 29 28 27 26 26 25 24 22 21 21 20 19 18 17 16 15 15 14 13 13 12 12 12 12 13 13 14 14 15 16 16 17 17 18 19 19 20 20 20
37 37 36 34 33 33 32 31 30 29 28 26 25 24 23 22 21 20 19 18 17 16 15 14 14 13 12 12 11 11 12 12 12 12 13 13 14 14 15 15 16 17 17 18
41 41 40 40 38 37 36 35 34 33 32 30 29 28 26 25 24 23 22 21 20 18 17 16 15 14 13 12 12 11 11 11 10 10 10 11 11 12 12 12 12 13 14 15
46 46 46 45 44 42 41 40 39 38 36 35 34 32 30 28 27 26 25 24 22 21 20 19 18 16 15 14 13 12 11 11 10 9 9 9 9 9 9 9 9 9 10 10
51 51 51 50 50 48 47 45 44 43 41 40 39 36 34 33 31 30 29 27 25 24 24 22 21 20 18 17 16 14 13 12 11 10 9 8 8 7 7 7 7 7 6 6
54 55 56 56 55 54 53 51 50 48 47 45 44 41 39 37 36 35 33 30 28 28 27 26 24 23 21 20 19 17 16 15 13 12 11 10 9 8 8 7 6 5 5 4
55 56 58 59 60 60 59 57 56 54 52 50 49 47 44 42 41 39 37 34 31 31 31 29 27 26 25 24 22 20 19 18 17 15 14 13 12 11 10 9 8 7 7 6
56 57 58 60 62 63 64 63 62 60 58 56 54 52 50 48 46 44 42 39 37 36 34 32 31 30 29 28 26 24 23 22 20 19 18 17 16 15 14 13 12 11 10 10
59 59 59 60 61 63 65 67 67 66 64 62 60 58 56 54 52 50 47 44 43 41 39 36 35 34 33 32 30 29 27 26 24 23 22 21 20 19 18 17 16 15 14 14
62 62 62 62 62 63 64 66 68 69 69 67 65 63 61 59 57 55 53 50 48 46 43 41 39 38 37 36 34 33 32 30 29 28 27 26 24 23 22 21 20 20 19 18
65 66 66 66 65 64 64 64 66 69 71 71 70 68 66 64 62 60 58 56 54 51 49 47 45 43 42 40 39 37 36 35 34 32 31 30 29 28 27 25 24 24 23 22
67 68 68 68 68 67 65 64 64 65 68 71 72 71 70 68 67 65 63 61 59 57 54 52 50 49 47 45 44 42 41 40 38 37 36 34 33 32 31 30 29 28 27 27
68 68 68 68 68 68 67 66 64 64 66 68 70 72 72 72 70 69 68 66 64 62 60 58 56 54 52 51 49 48 46 44 43 41 40 39 38 36 35 35 34 33 32 32
Wind_Direction
47 43 38 37 36 33 31 29 28 25 23 20 18 19 18 19 20 22 24 24 25 26 26 26 27 27 27 28 28 29 28 28 27 25 22 18 15 11 3 353 338 315 298 281
45 43 39 36 34 32 30 28 27 24 21 19 18 18 18 19 20 21 22 23 25 24 24 24 23 24 24 24 25 25 26 26 24 23 20 16 13 7 360 352 341 328 312 296
39 40 37 35 30 29 26 24 22 21 21 20 22 22 21 20 20 19 19 21 22 23 24 24 24 24 24 24 24 24 23 23 22 21 18 15 11 6 1 355 346 336 323 307
31 34 36 32 29 25 24 23 23 22 22 22 21 19 18 17 17 17 18 18 18 19 21 23 24 24 24 24 23 23 22 20 19 17 15 13 11 7 4 1 356 347 336 322
18 25 31 29 25 23 21 22 22 21 20 19 17 15 13 12 13 15 15 16 17 18 19 20 21 22 22 23 23 22 21 20 18 16 14 13 11 9 7 6 3 359 352 343
356 3 12 17 17 17 17 18 15 15 14 13 12 11 10 10 11 12 13 14 15 17 17 18 18 19 20 20 20 20 19 18 18 17 15 14 13 12 12 12 12 11 8 2
324 334 344 350 355 1 5 9 9 9 7 6 7 7 7 7 9 10 11 12 14 15 16 17 17 17 18 18 18 18 17 17 16 16 16 16 16 17 17 17 18 18 18 16
302 309 319 322 326 334 344 351 356 359 360 1 1 3 4 4 5 5 6 8 11 13 14 15 15 15 16 16 16 17 17 17 16 16 17 18 19 20 22 23 24 25 25 25
294 297 300 303 307 310 316 325 333 340 345 347 350 353 356 359 0 1 2 4 6 8 11 12 13 13 14 15 15 16 17 18 18 18 18 20 22 23 25 27 28 30 30 31
286 288 290 292 294 297 299 302 309 316 324 331 336 340 344 348 352 355 357 359 1 3 5 7 9 11 13 15 16 16 17 18 19 20 21 22 24 26 28 30 32 33 35 36
279 280 283 285 288 289 291 293 295 299 304 310 317 324 329 334 339 343 347 350 353 355 358 0 3 6 9 12 14 16 17 19 20 21 22 24 26 27 30 31 33 35 38 40
273 275 277 279 280 283 285 287 288 290 293 297 301 306 313 320 326 331 335 340 344 347 350 352 355 358 2 6 10 12 15 18 20 21 23 25 27 29 31 33 35 37 40 44
270 271 273 274 275 277 279 281 283 285 286 288 291 296 300 304 309 316 321 326 331 336 340 344 347 351 355 360 4 7 11 15 18 20 23 25 28 30 32 35 38 40 42 46
269 269 269 271 273 274 275 276 278 279 280 282 284 287 291 295 298 302 307 312 316 321 326 332 337 341 347 352 357 1 5 9 13 16 20 23 26 30 33 36 38 41 44 48
272 273 272 271 271 271 272 273 274 275 276 278 279 280 282 286 290 293 295 299 303 306 311 316 322 327 333 340 346 352 357 2 7 11 15 20 23 27 32 35 39 42 46 49
270 272 273 272 271 270 270 271 271 272 273 274 275 274 275 278 281 284 286 288 291 295 298 302 306 312 318 324 331 339 345 352 358 3 9 14 19 23 28 33 38 42 45 50
266 267 269 270 270 269 268 268 269 269 270 270 270 270 271 272 273 275 277 279 282 284 287 290 294 297 302 306 311 318 327 336 344 350 357 4 10 16 22 27 33 39 43 48
264 265 266 267 267 267 267 267 266 266 267 267 267 268 268 267 267 268 270 272 274 276 278 279 282 286 289 292 295 298 304 311 321 330 337 344 353 1 9 17 23 29 36 42
263 263 264 264 264 264 264 264 264 264 264 264 265 265 265 264 264 264 265 266 267 268 270 272 274 276 279 281 283 285 287 292 297 305 314 321 327 333 342 351 2 11 18 26
262 261 261 261 262 262 262 262 261 261 261 261 262 262 262 262 261 261 261 261 262 263 264 266 268 270 271 273 274 275 276 278 281 285 290 296 302 307 311 316 321 329 339 347
264 261 259 259 259 259 260 259 259 258 258 258 258 259 259 258 259 259 259 259 258 258 260 261 262 264 265 266 267 268 269 270 271 274 277 280 283 286 290 292 293 293 296 300
269 265 262 260 258 256 256 257 257 256 256 255 255 256 256 256 256 256 256 256 254 255 256 257 258 259 260 261 261 262 263 264 265 267 268 270 273 275 277 278 280 280 280 278
272 270 267 264 260 257 256 254 254 254 254 253 253 253 253 253 253 253 254 253 253 253 253 253 254 255 256 257 258 259 259 260 261 262 264 265 267 269 271 272 272 273 274 274
274 273 271 268 265 261 257 254 252 251 251 251 251 250 250 250 251 251 251 251 251 252 251 251 252 252 254 254 255 256 256 257 258 259 261 262 263 265 267 267 268 269 269 270
274 273 272 270 268 265 261 257 254 251 249 249 248 248 248 248 248 248 249 249 249 249 249 249 249 250 251 252 253 253 254 255 256 257 258 259 261 262 264 265 265 266 267 267
275 274 273 271 269 267 265 261 257 253 250 248 247 246 246 246 246 246 246 247 247 247 247 247 248 248 249 250 250 251 252 253 254 255 256 257 258 259 261 262 263 264 265 266
276 275 274 273 271 269 267 264 261 256 252 249 247 246 245 244 244 244 245 245 245 245 246 246 246 246 247 248 249 250 251 252 253 253 254 255 256 258 259 260 262 263 264 265
Height
5884 5881 5879 5877 5875 5872 5869 5867 5864 5862 5859 5857 5854 5851 5847 5843 5840 5836 5832 5828 5824 5819 5815 5811 5807 5802 5798 5794 5790 5786 5782 5778 5775 5772 5769 5766 5763 5760 5758 5756 5755 5754 5753 5753
5885 5883 5881 5879 5877 5874 5872 5869 5866 5864 5862 5858 5856 5853 5849 5846 5842 5838 5835 5831 5827 5823 5818 5814 5810 5806 5801 5797 5793 5789 5786 5782 5778 5774 5771 5768 5764 5761 5758 5756 5754 5752 5751 5750
5887 5885 5883 5881 5879 5876 5874 5871 5869 5866 5864 5860 5858 5855 5852 5848 5845 5841 5837 5833 5830 5826 5822 5817 5813 5809 5805 5801 5797 5793 5789 5785 5781 5777 5773 5769 5766 5762 5758 5755 5752 5750 5748 5747
5888 5886 5884 5884 5880 5878 5876 5873 5870 5868 5865 5863 5860 5857 5854 5851 5847 5843 5840 5836 5832 5828 5824 5821 5817 5812 5808 5804 5800 5796 5792 5788 5783 5779 5775 5771 5766 5762 5758 5754 5751 5748 5745 5744
5889 5887 5885 5884 5881 5879 5877 5875 5872 5870 5867 5864 5862 5859 5856 5853 5849 5846 5842 5838 5835 5831 5827 5824 5820 5816 5811 5807 5803 5799 5795 5790 5786 5781 5777 5772 5767 5762 5758 5754 5750 5746 5743 5741
5889 5887 5886 5886 5882 5880 5879 5876 5874 5871 5868 5866 5863 5861 5859 5855 5851 5847 5844 5841 5837 5833 5830 5826 5822 5819 5815 5811 5806 5802 5798 5793 5788 5783 5779 5774 5768 5763 5758 5754 5749 5745 5742 5740
5888 5887 5886 5885 5882 5881 5880 5879 5875 5872 5869 5867 5864 5862 5859 5856 5852 5849 5846 5843 5839 5836 5832 5829 5825 5821 5817 5813 5809 5805 5800 5796 5791 5786 5781 5775 5770 5764 5759 5755 5750 5746 5743 5740
5887 5886 5887 5884 5882 5881 5880 5877 5875 5872 5870 5868 5865 5862 5860 5857 5854 5851 5848 5844 5841 5838 5834 5831 5827 5824 5820 5816 5812 5807 5803 5798 5793 5789 5784 5778 5772 5767 5762 5757 5753 5749 5745 5742
5886 5886 5884 5882 5881 5880 5878 5876 5874 5872 5870 5868 5865 5863 5860 5858 5855 5852 5849 5846 5843 5839 5836 5833 5829 5826 5822 5818 5814 5810 5805 5801 5796 5792 5787 5781 5776 5771 5766 5761 5757 5753 5749 5745
5882 5881 5881 5880 5879 5877 5876 5875 5873 5871 5869 5867 5865 5863 5861 5858 5855 5852 5850 5847 5844 5841 5837 5834 5831 5827 5824 5820 5816 5812 5808 5804 5799 5795 5790 5785 5780 5775 5770 5766 5761 5757 5753 5750
5878 5877 5877 5876 5875 5874 5873 5872 5871 5869 5868 5866 5864 5862 5860 5857 5855 5852 5850 5847 5844 5841 5838 5835 5832 5829 5825 5822 5818 5815 5811 5807 5802 5798 5793 5789 5784 5780 5775 5771 5766 5762 5758 5754
5873 5872 5872 5872 5871 5870 5869 5868 5867 5866 5865 5863 5862 5860 5858 5856 5854 5851 5849 5847 5844 5841 5838 5836 5833 5830 5827 5823 5820 5817 5813 5809 5805 5801 5797 5793 5788 5784 5780 5775 5771 5767 5763 5760
5866 5866 5866 5866 5865 5865 5864 5863 5862 5862 5861 5860 5858 5857 5855 5854 5852 5850 5848 5845 5843 5841 5838 5836 5833 5830 5827 5824 5821 5818 5815 5812 5808 5804 5800 5796 5793 5789 5785 5781 5776 5772 5769 5765
5859 5860 5860 5860 5860 5859 5858 5857 5857 5856 5855 5855 5854 5853 5852 5850 5849 5847 5845 5843 5841 5839 5837 5835 5832 5830 5827 5825 5822 5819 5816 5813 5810 5807 5803 5800 5796 5793 5789 5785 5782 5778 5775 5772
5852 5853 5853 5853 5853 5852 5852 5851 5851 5850 5849 5849 5848 5847 5846 5846 5845 5843 5842 5840 5839 5837 5835 5833 5831 5829 5827 5824 5822 5820 5817 5814 5811 5809 5806 5803 5799 5796 5793 5790 5787 5784 5781 5778
5844 5844 5844 5845 5845 5845 5844 5844 5844 5843 5842 5842 5841 5841 5840 5840 5839 5838 5837 5836 5835 5833 5832 5830 5829 5827 5825 5823 5821 5819 5817 5815 5812 5810 5807 5804 5802 5799 5796 5794 5791 5788 5786 5783
5833 5834 5834 5834 5835 5835 5835 5835 5835 5835 5834 5834 5834 5833 5833 5833 5832 5832 5831 5830 5830 5829 5828 5826 5825 5824 5822 5821 5819 5817 5816 5814 5812 5810 5808 5805 5803 5801 5799 5796 5794 5792 5790 5788
5821 5822 5822 5822 5823 5824 5824 5825 5825 5825 5825 5825 5825 5825 5825 5825 5824 5824 5824 5824 5824 5823 5822 5821 5820 5819 5818 5817 5816 5815 5813 5812 5810 5809 5807 5805 5804 5802 5800 5798 5796 5794 5793 5791
5807 5807 5808 5808 5809 5810 5811 5812 5812 5813 5814 5814 5814 5815 5815 5815 5815 5815 5815 5815 5816 5816 5815 5815 5815 5814 5813 5812 5812 5811 5810 5809 5808 5807 5805 5804 5803 5801 5800 5798 5797 5796 5794 5793
5789 5790 5791 5792 5792 5794 5795 5796 5798 5799 5800 5801 5802 5803 5804 5805 5805 5805 5805 5806 5807 5807 5807 5807 5807 5807 5807 5807 5806 5806 5805 5804 5804 5803 5802 5802 5801 5799 5798 5797 5796 5795 5794 5793
5770 5771 5772 5773 5774 5775 5777 5779 5781 5783 5784 5786 5787 5789 5791 5792 5792 5793 5794 5796 5797 5797 5797 5798 5799 5799 5799 5799 5799 5799 5799 5799 5799 5798 5798 5797 5797 5796 5796 5795 5794 5793 5793 5792
5750 5750 5752 5753 5754 5755 5757 5758 5761 5763 5766 5769 5771 5773 5775 5777 5778 5780 5782 5784 5785 5785 5786 5788 5789 5789 5790 5790 5791 5791 5792 5792 5792 5792 5792 5792 5792 5792 5791 5791 5791 5790 5790 5789
5729 5729 5730 5731 5733 5734 5736 5737 5739 5742 5745 5749 5752 5755 5757 5760 5762 5765 5768 5770 5771 5772 5774 5776 5777 5778 5779 5780 5781 5782 5783 5784 5784 5785 5785 5785 5786 5786 5786 5786 5786 5786 5786 5785
5709 5708 5708 5709 5710 5711 5713 5715 5717 5720 5723 5727 5730 5734 5738 5741 5744 5748 5751 5753 5756 5758 5761 5763 5764 5765 5767 5768 5770 5772 5773 5774 5775 5776 5777 5777 5778 5778 5779 5779 5779 5779 5779 5780
5688 5686 5685 5685 5686 5687 5689 5691 5694 5696 5699 5703 5708 5712 5716 5720 5724 5728 5732 5735 5739 5742 5745 5748 5750 5751 5753 5756 5758 5760 5761 5763 5764 5766 5767 5768 5769 5769 5770 5771 5771 5772 5772 5772
5665 5664 5662 5661 5661 5662 5664 5666 5668 5671 5675 5679 5683 5688 5693 5698 5702 5707 5712 5716 5720 5724 5728 5731 5734 5736 5739 5741 5744 5746 5748 5750 5752 5754 5755 5757 5758 5759 5760 5761 5762 5763 5763 5764
5643 5640 5639 5638 5637 5637 5639 5641 5644 5647 5650 5654 5659 5663 5669 5674 5680 5685 5690 5695 5700 5705 5709 5712 5716 5719 5723 5725 5728 5731 5733 5736 5739 5741 5742 5744 5746 5747 5749 5750 5751 5752 5753 5753